sat.trackr.live / text

‹ back to catalog

STARLINK-3959

NORAD 52564 · 2022-051AH

PAYLOAD ACTIVE UNKNOWN

§ Identity

Operator
Country
US
Launch date
2022-05-13
Launch site
AFWTR
Launch vehicle
Mass (kg)
RCS (m²)

Purposes: comms

External: N2YO · Heavens-Above · Gunter

§ Orbital elements

Epoch: 2026-05-25T04:49:54.041088Z

Period
95.44 min
Inclination
53.2116°
Eccentricity
0.0001018
Mean motion
15.08834640 rev/d
Perigee alt
539.1 km
Apogee alt
540.5 km
Semi-major
6,917.9 km
B*
1.2722e-5
RAAN
150.6572°
Arg perigee
60.0585°
Mean anomaly
300.0508°
Rev number
22,292

§ Raw data

STARLINK-39591 52564U 22051AH  26145.20131992 -.00000085  00000+0  12722-4 0  99982 52564  53.2116 150.6572 0001018  60.0585 300.0508 15.08834640222924

JSON: /api/v1/satellites/52564 · /tle

For live sub-satellite position, see the globe view (requires WebGL).

§ Visibility from observer

Set your observer location to see the next 7 days of passes ≥ 10°. The values pass through the URL so the page stays shareable.

No JS? Fill the form by hand. The geolocation button needs JavaScript.